Regional Weather Roundup
Issued by NWS San Angelo, TX

Home | Current Version | Previous Version | Text Only | Print | Product List | Glossary On
Versions: 1 2 3 4 5 6 7 8 9 10 11 12 13 14 15 16 17 18 19 20 21 22 23 24 25 26 27 28 29 30 31 32 33 34 35 36 37 38 39 40 41 42 43 44 45 46 47 48 49 50
000
ASUS44 KSJT 010311
RWRSJT
WEST CENTRAL TEXAS REGIONAL WEATHER ROUNDUP
NATIONAL WEATHER SERVICE SAN ANGELO TX
1000 PM CDT SAT APR 30 2016

NOTE: "FAIR" INDICATES FEW OR NO CLOUDS BELOW 12,000 FEET WITH NO
SIGNIFICANT WEATHER AND/OR OBSTRUCTIONS TO VISIBILITY.

TXZ049-054-064>066-071>073-076>078-098-099-113-114-127-128-139-140-
154-155-168>170-010400
...LOCATIONS ACROSS WEST CENTRAL TEXAS...

CITY           SKY/WX    TMP DP  RH WIND       PRES   REMARKS
SAN ANGELO     CLEAR     68  45  43 E8        29.81R
ABILENE        CLEAR     65  51  60 E12       29.86R
DYESS AFB      CLEAR     65  51  60 E7        29.85R
JUNCTION       CLEAR     68  51  54 SE6       29.82R
SWEETWATER     CLEAR     63  48  57 E7        29.89R
BROWNWOOD      NOT AVBL
COLEMAN        NOT AVBL
SONORA         CLEAR     72  45  37 E7        29.86R
OZONA          FAIR      68  36  30 E9        29.83R
BRADY          NOT AVBL
$$

TEXAS PANHANDLE/OKLAHOMA PANHANDLE

CITY           SKY/WX    TMP DP  RH WIND       PRES   REMARKS
AMARILLO       MOCLDY    50  37  61 N13G22    30.01R
BORGER         CLEAR     51  35  54 N15       30.01R
CANADIAN       CLEAR     52  41  66 N7        29.98R
DALHART        CLOUDY    48  32  53 N15       30.04R
DUMAS          CLOUDY    46  35  67 N13       30.03R WCI  40
GUYMON         NOT AVBL
HEREFORD       LGT RAIN  51  45  79 NE21G26   29.99R
PAMPA          CLEAR     48  40  74 N10       30.00R
PERRYTON       PTCLDY    47  36  65 N10       30.00R
$$

SOUTHERN PANHANDLE/SOUTH PLAINS/ROLLING PLAINS

CITY           SKY/WX    TMP DP  RH WIND       PRES   REMARKS
LUBBOCK        PTCLDY    60  41  49 E15       29.89R
SNYDER           N/A     65  44  45 E7        29.87R
CHILDRESS      CLEAR     61  41  47 N10       29.92R
SEMINOLE       MOCLDY    67  35  30 E14G20    29.83R
$$

PERMIAN BASIN

CITY           SKY/WX    TMP DP  RH WIND       PRES   REMARKS
MIDLAND        CLEAR     71  41  33 E18       29.81R
ODESSA         CLEAR     72  34  24 E18       29.82R
WINK           CLEAR     69  26  20 E9        29.74R
$$

FAR WEST/SOUTHWEST MOUNTAINS/TRANS PECOS

CITY           SKY/WX    TMP DP  RH WIND       PRES   REMARKS
ALPINE         PTCLDY    59  13  16 SW5       29.87S
DRYDEN           N/A     78  31  17 SE13G22   29.75R
EL PASO        PTCLDY    68  15  13 E6        29.73R
FORT STOCKTON  CLEAR     70  23  17 E9        29.76R
GUADALUPE PASS CLEAR     62  15  16 NE15      29.87R
MARFA          CLEAR     54  15  21 NE8       29.84R
PECOS          CLEAR     69  21  16 E9        29.73R
$$

DALLAS/FORT WORTH METROPLEX

CITY           SKY/WX    TMP DP  RH WIND       PRES   REMARKS
DFW AIRPORT    PTCLDY    70  57  63 CALM      29.85R
FTW MEACHAM    CLEAR     65  57  75 N3        29.86R
DAL-EXECUTIVE  CLEAR     66  58  75 NW5       29.85R
GRAND PRAIRIE  CLEAR     69  58  68 CALM      29.87R
ADDISON        CLEAR     70  61  73 CALM      29.86R
MESQUITE       CLEAR     67  62  83 N5        29.85R
LANCASTER      CLEAR     67  58  73 NW6       29.85R
$$

NORTH CENTRAL TEXAS

CITY           SKY/WX    TMP DP  RH WIND       PRES   REMARKS
SHRMAN/DENISON CLEAR     61  56  84 CALM      29.88R
GAINESVILLE    CLEAR     62  55  76 N6        29.90R
BRIDGEPORT     CLEAR     58  58 100 CALM      29.90R
DENTON         CLEAR     63  58  83 NW6       29.86R
WAXAHACHIE     CLEAR     65  61  86 N6        29.86R
GRANBURY       CLEAR     65  58  77 CALM      29.89R
$$

WESTERN NORTH TEXAS

CITY           SKY/WX    TMP DP  RH WIND       PRES   REMARKS
WICHITA FALLS  CLEAR     61  49  64 NE6       29.89R
VERNON         CLEAR     59  45  59 N7        29.92R
BRECKENRIDGE   CLEAR     65  52  61 E8        29.87R
COMANCHE       CLEAR     65  58  77 E5        29.87R
$$

CENTRAL AND SOUTH CENTRAL TEXAS

CITY           SKY/WX    TMP DP  RH WIND       PRES   REMARKS
AUSTIN/BERGSTM PTCLDY    70  66  87 N6        29.78R
WACO           CLEAR     68  64  87 N6        29.83R
HILLSBORO      CLEAR     64  60  87 N3        29.85R
TEMPLE         CLEAR     69  66  90 N6        29.83R
KILLEEN-GRAY   CLEAR     68  62  79 NE12      29.82R
FORT HOOD      CLEAR     69  62  76 NE6       29.81R
GEORGETOWN       N/A    N/A N/A N/A MISG        N/A
LAGO VISTA     FAIR      72  63  72 NE8       29.83R
SAN MARCOS     CLEAR     72  66  83 NE7       29.79R
NEW BRAUNFELS  CLEAR     71  65  81 N7        29.77R
RANDOLPH AFB   CLEAR     73  64  73 NE5       29.78R HAZE
SAN ANTONIO    PTCLDY    74  62  66 NE5       29.79R
STINSON        CLEAR     77  62  59 NE5       29.76R
PLEASANTON     NOT AVBL
LA GRANGE        N/A     74  70  86 N3        29.77R
GIDDINGS       CLEAR     71  66  84 CALM      29.83R
$$

EAST TEXAS

CITY           SKY/WX    TMP DP  RH WIND       PRES   REMARKS
PARIS          CLEAR     64  55  72 NW5       29.85R
CLARKSVILLE    NOT AVBL
TYLER          CLEAR     70  64  81 NW3       29.83R
LONGVIEW       PTCLDY    71  66  84 NW5       29.81R
PALESTINE      CLEAR     68  66  93 N3        29.83R
NACOGDOCHES    PTCLDY    72  70  94 N8        29.80R
$$

TEXAS HILL COUNTRY AND EDWARDS PLATEAU

CITY           SKY/WX    TMP DP  RH WIND       PRES   REMARKS
LLANO          CLEAR     72  61  68 NE8       29.85R
HORSESHOE BAY  FAIR      69  59  69 E3        29.81R
KERRVILLE      CLEAR     69  56  64 E3        29.82R
FREDERICKSBRG  CLEAR     67  54  61 NE3       29.83R
ROCKSPRINGS    CLEAR     70  48  46 CALM      29.85R
HONDO          CLEAR     74  62  66 SE6       29.79R
UVALDE         CLEAR     72  56  58 E6        29.78R
DEL RIO        CLEAR     78  52  40 E9        29.74R
$$

SOUTHEAST TEXAS

CITY           SKY/WX    TMP DP  RH WIND       PRES   REMARKS
COLLEGE STN    CLEAR     75  70  84 N8        29.78R
CALDWELL       CLEAR     73  70  88 NW7       29.83R
CROCKETT       CLEAR     72  68  88 N5        29.83R
BRENHAM        CLEAR     75  68  79 N5        29.78R
HUNTSVILLE     CLEAR     73  67  81 CALM      29.79R
CONROE         CLEAR     71  70  96 NW3       29.78R
HOUSTON BUSH   PTCLDY    76  73  91 SE9       29.77R
HOUSTON HOBBY  MOCLDY    77  74  90 SE5       29.76R
PERLAND        CLOUDY    79  75  87 SE7       29.78R
WHARTON        CLOUDY    78  75  91 SE5       29.77R FOG
$$

THE UPPER TEXAS COAST

CITY           SKY/WX    TMP DP  RH WIND       PRES   REMARKS
ORANGE         CLOUDY    77  73  86 SE5       29.80R
PORT ARTHUR    CLOUDY    78  75  90 SE7       29.78R
GALVESTON      CLOUDY    78  77  96 E9        29.78R
ANGLETON       CLOUDY    77  75  93 E6        29.76R
BAY CITY       PTCLDY    76  75  97 E3        29.76R FOG
$$

TEXAS COASTAL BEND, RIO GRANDE PLAINS DEEP SOUTH TEXAS

CITY           SKY/WX    TMP DP  RH WIND       PRES   REMARKS
VICTORIA       CLOUDY    76  74  93 CALM      29.75R FOG
BEEVILLE       FAIR      74  67  77 NE3       29.75R
ROCKPORT       CLEAR     80  74  81 E9        29.73R
PORT ARANSAS   PTCLDY    78  77  97 E9        29.73R
PORT LAVACA    CLEAR     76  75  97 E3        29.74R FOG
CORPUS CHRISTI PTCLDY    80  74  81 E9        29.72R
KINGSVILLE NAS CLEAR     78  77  96 E6        29.72R
COTULLA        CLEAR     79  54  41 E8        29.74R
LAREDO         CLEAR     82  51  34 NE9       29.72R
BROWNSVILLE    CLOUDY    78  76  93 E3        29.72R
PORT ISABEL    CLOUDY    79  77  94 E9        29.70R FOG
HEBBRONVILLE   CLEAR     79  54  41 NE6       29.75R
MCALLEN        PTCLDY    85  72  65 E8        29.71R
WESLACO        PTCLDY    81  73  76 E3        29.71R
FALFURRIAS     CLEAR     79  71  74 CALM      29.72R
EDINBURG       PTCLDY    80  72  76 E6        29.71R
$$



USA.gov is the U.S. government's official web portal to all federal, state and local government web resources and services.